�v������,���r���O(���x),�����t���O,���r���O(���x),�����t���O,��1(���x),�����t���O,�������x,�����t���O,�C�ۑ�(���x),�����t���O,�C�ۑ�(���x),�����t���O
2/1/2005 0:00,19.1,0,38.2,0,17.6,0,-41.6,0,4,0,44.8,0
2/1/2005 0:15,19.3,0,37,0,17.6,0,-41.4,0,3,0,33.6,0
2/1/2005 0:30,19.4,0,35.8,0,17.5,0,-41.3,0,2,0,22.4,0
2/1/2005 0:45,19.6,0,35,0,17.5,0,-41.3,0,1,0,11.2,0
2/1/2005 1:00,19.7,0,34.1,0,17.5,0,-41.2,0,0,0,0,0
2/1/2005 1:15,19.9,0,34.2,0,17.4,0,-41.3,0,0,0,0,0
2/1/2005 1:30,19.9,0,33.4,0,17.4,0,-41.7,0,0,0,0,0
2/1/2005 1:45,20.1,0,33.8,0,17.4,0,-41.6,0,0,0,0,0
2/1/2005 2:00,19.7,0,33.8,0,17.4,0,-41.5,0,0,0,0,0
2/1/2005 2:15,19.2,0,34.1,0,17.4,0,-41.5,0,0,0,0,0
2/1/2005 2:30,18.6,0,34.6,0,17.3,0,-41.5,0,0,0,0,0
2/1/2005 2:45,18.3,0,34.7,0,17.3,0,-41.4,0,0,0,0,0
2/1/2005 3:00,17.9,0,34.9,0,17.2,0,-41.4,0,0,0,0,0
2/1/2005 3:15,17.5,0,35.4,0,17.1,0,-41.4,0,0,0,0,0
2/1/2005 3:30,17.1,0,35.7,0,17.1,0,-41.4,0,0,0,0,0
2/1/2005 3:45,16.6,0,36.3,0,17,0,-41.5,0,0,0,0,0
2/1/2005 4:00,16.1,0,37,0,16.9,0,-41.5,0,0,0,0,0
2/1/2005 4:15,15.8,0,37.5,0,16.9,0,-41.5,0,0,0,0,0
2/1/2005 4:30,15.5,0,37.8,0,16.8,0,-41.5,0,0,0,0,0
2/1/2005 4:45,15,0,38.3,0,16.7,0,-41.6,0,0,0,0,0
2/1/2005 5:00,14.8,0,38.7,0,16.6,0,-41.6,0,0,0,0,0
2/1/2005 5:15,14.5,0,39,0,16.5,0,-41.7,0,0,0,0,0
2/1/2005 5:30,14.3,0,39.2,0,16.4,0,-41.7,0,0,0,0,0
2/1/2005 5:45,14,0,39.6,0,16.4,0,-41.7,0,0,0,0,0
2/1/2005 6:00,14.4,0,39,0,16.2,0,-41.8,0,0,0,0,0
2/1/2005 6:15,15.2,0,38.3,0,16.2,0,-41.8,0,0,0,0,0
2/1/2005 6:30,16,0,37.7,0,16.1,0,-42.2,0,0,0,0,0
2/1/2005 6:45,16.5,0,36.9,0,16.1,0,-42.1,0,0,0,0,0
2/1/2005 7:00,17,0,37.3,0,16.4,0,-42.1,0,0,0,0,0
2/1/2005 7:15,17.4,0,38.6,0,16.5,0,-42.1,0,0,0,0,0
2/1/2005 7:30,17.8,0,41.6,0,16.2,0,-42.1,0,0,0,0,0
2/1/2005 7:45,17.8,0,40.2,0,15.9,0,-42.1,0,0,0,0,0
2/1/2005 8:00,16.8,0,34.9,0,15.8,0,-42.2,0,0,0,0,0
2/1/2005 8:15,16.8,0,39.6,0,15.7,0,-42.1,0,0,0,0,0
2/1/2005 8:30,16.4,0,38.9,0,15.6,0,-42.2,0,0,0,0,0
2/1/2005 8:45,16.2,0,38.5,0,15.6,0,-42.2,0,0,0,0,0
2/1/2005 9:00,15.9,0,36.9,0,15.6,0,-42.2,0,0,0,0,0
2/1/2005 9:15,15.6,0,36.9,0,15.6,0,-42.2,0,0,0,0,0
2/1/2005 9:30,15.3,0,36.3,0,15.6,0,-42.3,0,0,0,0,0
2/1/2005 9:45,15.1,0,36.1,0,15.6,0,-42.3,0,0,0,0,0
2/1/2005 10:00,15,0,35.1,0,15.6,0,-42.4,0,0,0,0,0
2/1/2005 10:15,14.8,0,34.2,0,15.7,0,-42.5,0,0,0,0,0
2/1/2005 10:30,14.7,0,34,0,15.7,0,-42.6,0,0,0,0,0
2/1/2005 10:45,14.5,0,33.8,0,15.8,0,-42.7,0,0,0,0,0
2/1/2005 11:00,14.4,0,33.6,0,15.8,0,-42.7,0,0,0,0,0
2/1/2005 11:15,14.3,0,33.4,0,15.9,0,-42.7,0,0,0,0,0
2/1/2005 11:30,14.2,0,33.8,0,16,0,-42.7,0,0,0,0,0
2/1/2005 11:45,14.1,0,33.5,0,16.1,0,-42.7,0,0,0,0,0
2/1/2005 12:00,14,0,33.7,0,16.2,0,-42.6,0,0,0,0,0
2/1/2005 12:15,14,0,33.4,0,16.4,0,-42.6,0,0,0,0,0
2/1/2005 12:30,14,0,33.4,0,16.5,0,-42.6,0,0,0,0,0
2/1/2005 12:45,14,0,33.1,0,16.7,0,-42.6,0,0,0,0,0
2/1/2005 13:00,14,0,33.5,0,16.9,0,-42.7,0,0,0,0,0
2/1/2005 13:15,14.1,0,33.5,0,17.1,0,-42.8,0,0,0,0,0
2/1/2005 13:30,14.1,0,33.3,0,17.3,0,-42.8,0,0,0,0,0
2/1/2005 13:45,14.2,0,32.6,0,17.5,0,-42.8,0,0,0,0,0
2/1/2005 14:00,14.3,0,32.5,0,17.7,0,-42.7,0,0,0,0,0
2/1/2005 14:15,14.3,0,32.2,0,17.8,0,-42.7,0,0,0,0,0
2/1/2005 14:30,14.2,0,32.3,0,17.7,0,-42.8,0,0,0,0,0
2/1/2005 14:45,14.1,0,32.7,0,17.4,0,-42.8,0,0,0,0,0
2/1/2005 15:00,13.9,0,32.7,0,17.2,0,-42.8,0,0,0,0,0
2/1/2005 15:15,13.8,0,33.2,0,17,0,-42.7,0,0,0,0,0
2/1/2005 15:30,13.7,0,33.3,0,16.7,0,-42.8,0,0,0,0,0
2/1/2005 15:45,13.5,0,33.3,0,16.5,0,-42.8,0,0,0,0,0
2/1/2005 16:00,13.3,0,32.9,0,16.3,0,-42.9,0,0,0,0,0
2/1/2005 16:15,13.2,0,33.4,0,16.1,0,-42.9,0,0,0,0,0
2/1/2005 16:30,13.1,0,33.5,0,15.9,0,-42.9,0,0,0,0,0
2/1/2005 16:45,13,0,33.4,0,15.8,0,-43,0,0,0,0,0
2/1/2005 17:00,12.8,0,32.8,0,15.6,0,-43.1,0,0,0,0,0
2/1/2005 17:15,12.7,0,35.9,0,15.4,0,-43.2,0,0,0,0,0
2/1/2005 17:30,12.5,0,33.4,0,15.2,0,-43.3,0,0,0,0,0
2/1/2005 17:45,12.4,0,33.5,0,15,0,-43.4,0,0,0,0,0
2/1/2005 18:00,13,0,32.9,0,14.9,0,-43.5,0,0,0,0,0
2/1/2005 18:15,13.8,0,32.2,0,14.8,0,-43.5,0,0,0,0,0
2/1/2005 18:30,14.6,0,32.6,0,14.7,0,-43.9,0,0,0,0,0
2/1/2005 18:45,15.2,0,32.8,0,14.6,0,-43.9,0,0,0,0,0
2/1/2005 19:00,15.9,0,36.2,0,14.5,0,-43.9,0,0,0,0,0
2/1/2005 19:15,16.4,0,37.2,0,14.5,0,-44.5,0,0,0,0,0
2/1/2005 19:30,16.8,0,34.2,0,14.4,0,-44.3,0,0,0,0,0
2/1/2005 19:45,17.1,0,32.1,0,14.3,0,-44.2,0,0,0,0,0
2/1/2005 20:00,17.4,0,31.4,0,14.3,0,-44.5,0,0,0,0,0
2/1/2005 20:15,17.8,0,37.8,0,14.2,0,-44.7,0,0,0,0,0
2/1/2005 20:30,18.2,0,40.5,0,14.2,0,-44.6,0,0,0,0,0
2/1/2005 20:45,18.5,0,38.6,0,14.1,0,-44.3,0,0,0,0,0
2/1/2005 21:00,18.6,0,37.2,0,14.1,0,-44.2,0,0,0,0,0
2/1/2005 21:15,18.7,0,34.9,0,14.1,0,-44.9,0,0,0,0,0
2/1/2005 21:30,18.8,0,34,0,14,0,-44.7,0,0,0,0,0
2/1/2005 21:45,19,0,35.3,0,14,0,-44.5,0,0,0,0,0
2/1/2005 22:00,19,0,34.5,0,13.9,0,-44.4,0,0,0,0,0
2/1/2005 22:15,19.1,0,34.7,0,13.9,0,-44.2,0,0,0,0,0
2/1/2005 22:30,19.2,0,33.9,0,14.3,0,-43.9,0,0,0,0,0
2/1/2005 22:45,19.2,0,33.2,0,14.4,0,-43.8,0,0,0,0,0
2/1/2005 23:00,19.3,0,32.8,0,14.4,0,-43.8,0,0,0,0,0
2/1/2005 23:15,19.4,0,32.3,0,14.5,0,-43.8,0,0,0,0,0
2/1/2005 23:30,19.4,0,31.8,0,14.5,0,-43.8,0,0,0,0,0
2/1/2005 23:45,19.5,0,31.4,0,14.6,0,-43.7,0,0,0,0,0
2/2/2005 0:00,19.6,0,38.7,0,14.7,0,-43.8,0,0,0,0,0
2/2/2005 0:15,19.7,0,37.3,0,14.8,0,-43.8,0,0,0,0,0
2/2/2005 0:30,19.8,0,35.5,0,14.9,0,-43.8,0,0,0,0,0
2/2/2005 0:45,19.8,0,33.8,0,15,0,-43.8,0,0,0,0,0
2/2/2005 1:00,19.8,0,33.8,0,15,0,-43.8,0,0,0,0,0
2/2/2005 1:15,19.9,0,33.8,0,15,0,-43.8,0,0,0,0,0
2/2/2005 1:30,19.9,0,33.6,0,15,0,-43.9,0,0,0,0,0
2/2/2005 1:45,19.9,0,33.4,0,15,0,-43.9,0,0,0,0,0
2/2/2005 2:00,19.8,0,33.9,0,15.2,0,-43.8,0,0,0,0,0
2/2/2005 2:15,19.8,0,33.1,0,15.2,0,-43.8,0,0,0,0,0
2/2/2005 2:30,19.7,0,32.6,0,15.2,0,-43.8,0,0,0,0,0
2/2/2005 2:45,19.7,0,32.3,0,15.2,0,-43.8,0,0,0,0,0
2/2/2005 3:00,19.7,0,31.9,0,15.2,0,-43.9,0,0,0,0,0
2/2/2005 3:15,19.7,0,31.5,0,15.2,0,-43.8,0,0,0,0,0
2/2/2005 3:30,19.6,0,31.5,0,15.2,0,-43.9,0,0,0,0,0
2/2/2005 3:45,19.6,0,31.5,0,15.2,0,-43.9,0,0,0,0,0
2/2/2005 4:00,19.6,0,31.2,0,15.2,0,-44,0,0,0,0,0
2/2/2005 4:15,19.5,0,30.9,0,15.2,0,-44.1,0,0,0,0,0
2/2/2005 4:30,19.5,0,30.7,0,15.1,0,-44.1,0,0,0,0,0
2/2/2005 4:45,19.5,0,30.9,0,15.1,0,-44.7,0,0,0,0,0
2/2/2005 5:00,19.5,0,30.8,0,15.1,0,-44.7,0,0,0,0,0
2/2/2005 5:15,19.5,0,30.6,0,15,0,-44.6,0,0,0,0,0
2/2/2005 5:30,19.5,0,30.6,0,15,0,-44.9,0,0,0,0,0
2/2/2005 5:45,19.5,0,30.5,0,15,0,-44.9,0,0,0,0,0
2/2/2005 6:00,19.5,0,30.4,0,15,0,-44.9,0,0,0,0,0
2/2/2005 6:15,19.5,0,30.4,0,15,0,-44.9,0,0,0,0,0
2/2/2005 6:30,19.5,0,33.3,0,15,0,-45,0,0,0,0,0
2/2/2005 6:45,19.6,0,36.3,0,14.9,0,-45.1,0,0,0,0,0
2/2/2005 7:00,19.6,0,38.8,0,15,0,-45.1,0,0,0,0,0
2/2/2005 7:15,19.6,0,40,0,15,0,-45.2,0,0,0,0,0
2/2/2005 7:30,19.4,0,39.4,0,15.3,0,-45.2,0,0,0,0,0
2/2/2005 7:45,19.1,0,40.3,0,15.7,0,-45.3,0,0,0,0,0
2/2/2005 8:00,18.6,0,41.4,0,15.8,0,-45.6,0,0,0,0,0
2/2/2005 8:15,18.1,0,39.5,0,15.9,0,-45.6,0,0,0,0,0
2/2/2005 8:30,17.5,0,40.6,0,15.9,0,-45.5,0,0,0,0,0
2/2/2005 8:45,17.2,0,39.5,0,15.8,0,-45.5,0,0,0,0,0
2/2/2005 9:00,16.8,0,38.2,0,15.8,0,-45.4,0,0,0,0,0
2/2/2005 9:15,16.5,0,37.9,0,15.7,0,-45.5,0,0,0,0,0
2/2/2005 9:30,16.1,0,37.5,0,15.8,0,-45.3,0,0,0,0,0
2/2/2005 9:45,15.8,0,36.7,0,15.8,0,-45.4,0,0,0,0,0
2/2/2005 10:00,15.6,0,35.8,0,16,0,-45.4,0,0,0,0,0
2/2/2005 10:15,15.4,0,35.3,0,16.1,0,-45.5,0,0,0,0,0
2/2/2005 10:30,15.2,0,35.1,0,16.2,0,-45.5,0,0,0,0,0
2/2/2005 10:45,15,0,34.1,0,16.4,0,-45.5,0,0,0,0,0
2/2/2005 11:00,14.8,0,33.7,0,16.4,0,-45.6,0,0,0,0,0
2/2/2005 11:15,14.7,0,33.9,0,16.4,0,-45.6,0,0,0,0,0
2/2/2005 11:30,14.6,0,34.3,0,16.5,0,-45.7,0,0,0,0,0
2/2/2005 11:45,14.5,0,34.5,0,16.7,0,-45.7,0,0,0,0,0
2/2/2005 12:00,14.4,0,33.8,0,16.9,0,-45.7,0,0,0,0,0
2/2/2005 12:15,14.4,0,34.7,0,17.1,0,-45.7,0,0,0,0,0
2/2/2005 12:30,14.3,0,34.3,0,17.3,0,-45.8,0,0,0,0,0
2/2/2005 12:45,14.4,0,35,0,17.5,0,-45.8,0,0,0,0,0
2/2/2005 13:00,14.4,0,34.9,0,17.7,0,-45.8,0,0,0,0,0
2/2/2005 13:15,14.4,0,35.3,0,17.8,0,-45.8,0,0,0,0,0
2/2/2005 13:30,14.4,0,35.1,0,18,0,-45.7,0,0,0,0,0
2/2/2005 13:45,14.4,0,35.1,0,18.2,0,-45.7,0,0,0,0,0
2/2/2005 14:00,14.5,0,34.6,0,18.4,0,-45.7,0,0,0,0,0
2/2/2005 14:15,14.7,0,34.1,0,18.6,0,-45.7,0,0,0,0,0
2/2/2005 14:30,15.7,0,32.6,0,18.7,0,-45.7,0,0,0,0,0
2/2/2005 14:45,15,0,33.8,0,18.8,0,-45.7,0,0,0,0,0
2/2/2005 15:00,15,0,33.3,0,19,0,-45.6,0,0,0,0,0
2/2/2005 15:15,15.2,0,33.7,0,19.1,0,-45.5,0,0,0,0,0
2/2/2005 15:30,15.2,0,33.2,0,19.2,0,-45.5,0,0,0,0,0
2/2/2005 15:45,15.1,0,34,0,19.2,0,-45.5,0,0,0,0,0
2/2/2005 16:00,15,0,33.8,0,18.9,0,-45.4,0,0,0,0,0
2/2/2005 16:15,14.8,0,34.4,0,18.7,0,-45.4,0,0,0,0,0
2/2/2005 16:30,14.6,0,34.2,0,18.3,0,-45.4,0,0,0,0,0
2/2/2005 16:45,14.4,0,34.3,0,18.2,0,-45.3,0,0,0,0,0
2/2/2005 17:00,14.2,0,33.4,0,17.9,0,-45.3,0,0,0,0,0
2/2/2005 17:15,14,0,33.5,0,17.6,0,-45.2,0,0,0,0,0
2/2/2005 17:30,14,0,34.4,0,17.3,0,-45.2,0,0,0,0,0
2/2/2005 17:45,13.8,0,34,0,17.1,0,-45.2,0,0,0,0,0
2/2/2005 18:00,13.8,0,33.7,0,16.8,0,-45.2,0,0,0,0,0
2/2/2005 18:15,14.8,0,39.4,0,16.9,0,-45.2,0,0,0,0,0
2/2/2005 18:30,15.6,0,39.6,0,17,0,-45.2,0,0,0,0,0
2/2/2005 18:45,16.3,0,45.8,0,17.1,0,-45.2,0,0,0,0,0
2/2/2005 19:00,16.6,0,43.2,0,17.1,0,-45.9,0,0,0,0,0
2/2/2005 19:15,16.6,0,41.8,0,17.1,0,-45.7,0,0,0,0,0
2/2/2005 19:30,16.4,0,43.5,0,17,0,-45.6,0,0,0,0,0
2/2/2005 19:45,16.2,0,44.3,0,16.9,0,-45.5,0,0,0,0,0
2/2/2005 20:00,16,0,42.9,0,16.9,0,-45.5,0,0,0,0,0
2/2/2005 20:15,15.7,0,41.2,0,16.8,0,-45.5,0,0,0,0,0
2/2/2005 20:30,15.4,0,40,0,16.7,0,-45.5,0,0,0,0,0
2/2/2005 20:45,15.3,0,39.4,0,16.6,0,-45.5,0,0,0,0,0
2/2/2005 21:00,15.7,0,39.5,0,16.5,0,-45.6,0,0,0,0,0
2/2/2005 21:15,16.3,0,37.3,0,16.4,0,-46.3,0,0,0,0,0
2/2/2005 21:30,16.8,0,35.5,0,16.3,0,-46.2,0,0,0,0,0
2/2/2005 21:45,17.3,0,37.9,0,16.3,0,-46,0,0,0,0,0
2/2/2005 22:00,17.6,0,37.4,0,16.3,0,-45.9,0,0,0,0,0
2/2/2005 22:15,17.9,0,36.2,0,16.3,0,-45.9,0,0,0,0,0
2/2/2005 22:30,18.2,0,35.2,0,16.2,0,-45.9,0,0,0,0,0
2/2/2005 22:45,18.4,0,34.1,0,16.2,0,-45.9,0,0,0,0,0
2/2/2005 23:00,18.6,0,33.3,0,16.2,0,-45.9,0,0,0,0,0
2/2/2005 23:15,18.8,0,32.5,0,16.1,0,-45.9,0,0,0,0,0
2/2/2005 23:30,19,0,32,0,16,0,-45.9,0,0,0,0,0
2/2/2005 23:45,19.1,0,31.4,0,15.8,0,-45.9,0,0,0,0,0
2/3/2005 0:00,19.3,0,31,0,15.7,0,-45.9,0,0,0,0,0
2/3/2005 0:15,19.4,0,30.6,0,15.6,0,-45.9,0,0,0,0,0
2/3/2005 0:30,19.5,0,30.4,0,15.4,0,-45.9,0,0,0,0,0
2/3/2005 0:45,19.5,0,30,0,15.3,0,-45.9,0,0,0,0,0
2/3/2005 1:00,19.6,0,29.7,0,15.2,0,-45.9,0,0,0,0,0
2/3/2005 1:15,19.7,0,29.8,0,15.1,0,-46,0,0,0,0,0
2/3/2005 1:30,19.8,0,29.9,0,15,0,-46.2,0,0,0,0,0
2/3/2005 1:45,19.8,0,29.8,0,14.9,0,-46.5,0,0,0,0,0
2/3/2005 2:00,19.8,0,31.2,0,14.9,0,-46.4,0,0,0,0,0
2/3/2005 2:15,19.8,0,31.3,0,14.9,0,-46.4,0,0,0,0,0
2/3/2005 2:30,19.8,0,31.2,0,14.8,0,-46.3,0,0,0,0,0
2/3/2005 2:45,19.8,0,30.9,0,14.8,0,-46.3,0,0,0,0,0
2/3/2005 3:00,19.8,0,30.8,0,14.7,0,-46.3,0,0,0,0,0
2/3/2005 3:15,19.8,0,30.5,0,14.7,0,-46.3,0,0,0,0,0
2/3/2005 3:30,19.8,0,30.2,0,14.7,0,-46.3,0,0,0,0,0
2/3/2005 3:45,19.8,0,30.1,0,14.6,0,-46.3,0,0,0,0,0
2/3/2005 4:00,19.8,0,29.8,0,14.6,0,-46.3,0,0,0,0,0
2/3/2005 4:15,19.8,0,29.7,0,14.6,0,-46.2,0,0,0,0,0
2/3/2005 4:30,19.8,0,29.6,0,14.6,0,-46.2,0,0,0,0,0
2/3/2005 4:45,19.7,0,29.3,0,14.5,0,-46.2,0,0,0,0,0
2/3/2005 5:00,19.7,0,29.2,0,14.5,0,-46.3,0,0,0,0,0
2/3/2005 5:15,19.7,0,29,0,14.5,0,-46.3,0,0,0,0,0
2/3/2005 5:30,19.7,0,28.9,0,14.4,0,-46.3,0,0,0,0,0
2/3/2005 5:45,19.7,0,28.9,0,14.4,0,-46.3,0,0,0,0,0
2/3/2005 6:00,19.7,0,28.6,0,14.3,0,-46.4,0,0,0,0,0
2/3/2005 6:15,19.7,0,28.5,0,14.3,0,-46.4,0,0,0,0,0
2/3/2005 6:30,19.6,0,28.4,0,14.3,0,-46.5,0,0,0,0,0
2/3/2005 6:45,19.6,0,28.3,0,14.3,0,-46.5,0,0,0,0,0
2/3/2005 7:00,19.6,0,30.1,0,14.3,0,-47,0,0,0,0,0
2/3/2005 7:15,19.7,0,31,0,14.3,0,-47.1,0,0,0,0,0
2/3/2005 7:30,19.8,0,32.2,0,14.3,0,-47.2,0,0,0,0,0
2/3/2005 7:45,19.6,0,32,0,14.2,0,-47.2,0,0,0,0,0
2/3/2005 8:00,19.2,0,32.6,0,14.3,0,-47.1,0,0,0,0,0
2/3/2005 8:15,18.5,0,33.3,0,14.5,0,-47.4,0,0,0,0,0
2/3/2005 8:30,18,0,33.7,0,14.6,0,-47.4,0,0,0,0,0
2/3/2005 8:45,17.5,0,33.7,0,14.7,0,-47.3,0,0,0,0,0
2/3/2005 9:00,17.2,0,33.8,0,14.8,0,-47.2,0,0,0,0,0
2/3/2005 9:15,16.8,0,33.7,0,14.9,0,-47.2,0,0,0,0,0
2/3/2005 9:30,16.6,0,33.8,0,14.9,0,-47.2,0,0,0,0,0
2/3/2005 9:45,16.3,0,33.8,0,15,0,-47.2,0,0,0,0,0
2/3/2005 10:00,16.1,0,33.8,0,15,0,-47.2,0,0,0,0,0
2/3/2005 10:15,15.9,0,33.4,0,15.1,0,-47.1,0,0,0,0,0
2/3/2005 10:30,15.6,0,33.5,0,15.1,0,-47.1,0,0,0,0,0
2/3/2005 10:45,15.5,0,33.6,0,15.1,0,-47.1,0,0,0,0,0
2/3/2005 11:00,15.3,0,33.4,0,15.2,0,-47.2,0,0,0,0,0
2/3/2005 11:15,15.1,0,33.8,0,15.2,0,-47.2,0,0,0,0,0
2/3/2005 11:30,15,0,34.4,0,15.3,0,-47.2,0,0,0,0,0
2/3/2005 11:45,14.9,0,34.4,0,15.4,0,-47.2,0,0,0,0,0
2/3/2005 12:00,14.9,0,34.6,0,15.6,0,-47.2,0,0,0,0,0
2/3/2005 12:15,14.9,0,34.7,0,15.7,0,-47.1,0,0,0,0,0
2/3/2005 12:30,14.8,0,34.6,0,15.8,0,-47.1,0,0,0,0,0
2/3/2005 12:45,14.8,0,34.1,0,15.9,0,-47,0,0,0,0,0
2/3/2005 13:00,14.8,0,34.5,0,16,0,-47,0,0,0,0,0
2/3/2005 13:15,14.7,0,34.3,0,16.2,0,-46.9,0,0,0,0,0
2/3/2005 13:30,14.8,0,34.5,0,16.3,0,-46.9,0,0,0,0,0
2/3/2005 13:45,14.8,0,33.9,0,16.5,0,-46.8,0,0,0,0,0
2/3/2005 14:00,14.8,0,33.5,0,16.6,0,-46.7,0,0,0,0,0
2/3/2005 14:15,14.9,0,33.3,0,16.8,0,-46.7,0,0,0,0,0
2/3/2005 14:30,14.9,0,33,0,16.9,0,-46.6,0,0,0,0,0
2/3/2005 14:45,15.1,0,32.9,0,17.1,0,-46.5,0,0,0,0,0
2/3/2005 15:00,15.3,0,32.7,0,17.2,0,-46.5,0,0,0,0,0
2/3/2005 15:15,15.6,0,33.5,0,17.4,0,-46.4,0,0,0,0,0
2/3/2005 15:30,15.4,0,33.1,0,17.7,0,-46.3,0,0,0,0,0
2/3/2005 15:45,15.4,0,33.1,0,17.9,0,-46.3,0,0,0,0,0
2/3/2005 16:00,15.3,0,32.7,0,18,0,-46.2,0,0,0,0,0
2/3/2005 16:15,15.3,0,33,0,18.1,0,-46.1,0,0,0,0,0
2/3/2005 16:30,15.3,0,32.8,0,18.2,0,-46,0,0,0,0,0
2/3/2005 16:45,15.1,0,32.9,0,18.2,0,-46,0,0,0,0,0
2/3/2005 17:00,14.8,0,32.8,0,18,0,-45.9,0,0,0,0,0
2/3/2005 17:15,14.6,0,33.5,0,17.7,0,-45.8,0,0,0,0,0
2/3/2005 17:30,14.4,0,33.7,0,17.5,0,-45.8,0,0,0,0,0
2/3/2005 17:45,14.4,0,34.1,0,17.2,0,-45.7,0,0,0,0,0
2/3/2005 18:00,14.3,0,33.7,0,16.9,0,-45.7,0,0,0,0,0
2/3/2005 18:15,15.3,0,33.1,0,16.7,0,-45.7,0,0,0,0,0
2/3/2005 18:30,16.1,0,32.9,0,16.5,0,-45.7,0,0,0,0,0
2/3/2005 18:45,16.7,0,32.7,0,16.4,0,-46.3,0,0,0,0,0
2/3/2005 19:00,17.2,0,33.9,0,16.2,0,-46.1,0,0,0,0,0
2/3/2005 19:15,17.6,0,33.9,0,16.1,0,-46,0,0,0,0,0
2/3/2005 19:30,18,0,33.1,0,16,0,-46,0,0,0,0,0
2/3/2005 19:45,18.3,0,32.8,0,15.9,0,-45.9,0,0,0,0,0
2/3/2005 20:00,18.6,0,33.2,0,15.8,0,-46.7,0,0,0,0,0
2/3/2005 20:15,18.8,0,36.7,0,15.7,0,-46.8,0,0,0,0,0
2/3/2005 20:30,19,0,38.3,0,15.6,0,-46.5,0,0,0,0,0
2/3/2005 20:45,19.2,0,38.3,0,15.6,0,-46.3,0,0,0,0,0
2/3/2005 21:00,19.3,0,36.8,0,15.5,0,-46.3,0,0,0,0,0
2/3/2005 21:15,19,0,35.1,0,15.6,0,-46.2,0,0,0,0,0
2/3/2005 21:30,18.6,0,33.9,0,15.6,0,-46.2,0,0,0,0,0
2/3/2005 21:45,18.2,0,33.7,0,15.6,0,-46.1,0,0,0,0,0
2/3/2005 22:00,18.3,0,34.2,0,15.6,0,-46.7,0,0,0,0,0
2/3/2005 22:15,18.7,0,39.9,0,15.5,0,-46.4,0,0,0,0,0
2/3/2005 22:30,19,0,43.7,0,15.4,0,-46.1,0,0,0,0,0
2/3/2005 22:45,19.1,0,43.8,0,15.4,0,-46,0,0,0,0,0
2/3/2005 23:00,19.2,0,44.4,0,15.4,0,-46,0,0,0,0,0
2/3/2005 23:15,19.4,0,44.9,0,15.3,0,-45.9,0,0,0,0,0
2/3/2005 23:30,19.5,0,45.4,0,15.3,0,-45.8,0,0,0,0,0
2/3/2005 23:45,19.6,0,45.5,0,15.3,0,-45.7,0,0,0,0,0
2/4/2005 0:00,19.6,0,43.9,0,15.3,0,-45.7,0,0,0,0,0
2/4/2005 0:15,19.7,0,40.7,0,15.3,0,-45.6,0,0,0,0,0
2/4/2005 0:30,19.8,0,37.8,0,15.3,0,-45.6,0,0,0,0,0
2/4/2005 0:45,19.8,0,35.7,0,15.2,0,-45.6,0,0,0,0,0
2/4/2005 1:00,19.8,0,34.5,0,15.2,0,-45.5,0,0,0,0,0
2/4/2005 1:15,19.8,0,33.5,0,15.1,0,-45.5,0,0,0,0,0
2/4/2005 1:30,19.9,0,33,0,15.1,0,-45.4,0,0,0,0,0
2/4/2005 1:45,19.9,0,32.1,0,15.1,0,-45.4,0,0,0,0,0
2/4/2005 2:00,19.9,0,31.2,0,15.1,0,-45.4,0,0,0,0,0
2/4/2005 2:15,20,0,31.3,0,15.1,0,-45.3,0,0,0,0,0
2/4/2005 2:30,20,0,30.5,0,15.1,0,-45.3,0,0,0,0,0
2/4/2005 2:45,20,0,30.1,0,15,0,-45.5,0,0,0,0,0
2/4/2005 3:00,20.1,0,29.7,0,15,0,-45.8,0,0,0,0,0
2/4/2005 3:15,20.1,0,29.4,0,15,0,-45.6,0,0,0,0,0
2/4/2005 3:30,20.1,0,29.1,0,14.9,0,-45.5,0,0,0,0,0
2/4/2005 3:45,20.1,0,28.7,0,14.9,0,-45.4,0,0,0,0,0
2/4/2005 4:00,20.1,0,28.6,0,14.8,0,-45.4,0,0,0,0,0
2/4/2005 4:15,20.1,0,28.4,0,14.8,0,-45.4,0,0,0,0,0
2/4/2005 4:30,20.1,0,28.1,0,14.8,0,-45.4,0,0,0,0,0
2/4/2005 4:45,20.1,0,27.9,0,14.8,0,-45.4,0,0,0,0,0
2/4/2005 5:00,20.1,0,28,0,14.7,0,-46,0,0,0,0,0
2/4/2005 5:15,20.1,0,27.6,0,14.7,0,-45.9,0,0,0,0,0
2/4/2005 5:30,20.1,0,27.4,0,14.7,0,-45.8,0,0,0,0,0
2/4/2005 5:45,20.1,0,27.4,0,14.7,0,-45.8,0,0,0,0,0
2/4/2005 6:00,20,0,27.3,0,14.6,0,-45.8,0,0,0,0,0
2/4/2005 6:15,20,0,27,0,14.6,0,-45.8,0,0,0,0,0
2/4/2005 6:30,20.1,0,27.2,0,14.6,0,-45.9,0,0,0,0,0
2/4/2005 6:45,20.2,0,27.3,0,14.6,0,-45.9,0,0,0,0,0
2/4/2005 7:00,20.2,0,27.6,0,14.6,0,-46,0,0,0,0,0
2/4/2005 7:15,19.9,0,29.4,0,15.1,0,-46,0,0,0,0,0
2/4/2005 7:30,20.1,0,31.3,0,15.5,0,-46.1,0,0,0,0,0
2/4/2005 7:45,19.9,0,32.6,0,15.7,0,-46.2,0,0,0,0,0
2/4/2005 8:00,19.4,0,33,0,15.8,0,-46.8,0,0,0,0,0
2/4/2005 8:15,18.6,0,33.1,0,15.9,0,-46.7,0,0,0,0,0
2/4/2005 8:30,18.3,0,32.6,0,16,0,-46.7,0,0,0,0,0
2/4/2005 8:45,17.9,0,32.6,0,16,0,-46.7,0,0,0,0,0
2/4/2005 9:00,17.6,0,32.5,0,16.1,0,-46.8,0,0,0,0,0
2/4/2005 9:15,17.3,0,32.1,0,16.1,0,-46.8,0,0,0,0,0
2/4/2005 9:30,17.1,0,32.1,0,16.1,0,-46.8,0,0,0,0,0
2/4/2005 9:45,16.8,0,31.2,0,16.1,0,-46.8,0,0,0,0,0
2/4/2005 10:00,16.6,0,31.2,0,16.2,0,-46.8,0,0,0,0,0
2/4/2005 10:15,16.4,0,31.3,0,16.2,0,-46.8,0,0,0,0,0
2/4/2005 10:30,16.2,0,31.1,0,16.2,0,-46.9,0,0,0,0,0
2/4/2005 10:45,16,0,31.3,0,16.2,0,-46.9,0,0,0,0,0
2/4/2005 11:00,15.9,0,31.6,0,16.2,0,-46.9,0,0,0,0,0
2/4/2005 11:15,15.7,0,32.1,0,16.2,0,-46.8,0,0,0,0,0
2/4/2005 11:30,15.6,0,32.2,0,16.2,0,-46.8,0,0,0,0,0
2/4/2005 11:45,15.5,0,32,0,16.3,0,-46.8,0,0,0,0,0
2/4/2005 12:00,15.5,0,32,0,16.4,0,-46.8,0,0,0,0,0
2/4/2005 12:15,15.4,0,31.7,0,16.5,0,-46.7,0,0,0,0,0
2/4/2005 12:30,15.5,0,31.8,0,16.7,0,-46.7,0,0,0,0,0
2/4/2005 12:45,15.5,0,32,0,16.8,0,-46.6,0,0,0,0,0
2/4/2005 13:00,15.5,0,32,0,17,0,-46.6,0,0,0,0,0
2/4/2005 13:15,15.6,0,31.9,0,17.1,0,-46.5,0,0,0,0,0
2/4/2005 13:30,15.7,0,31.9,0,17.3,0,-46.5,0,0,0,0,0
2/4/2005 13:45,15.8,0,31.9,0,17.5,0,-46.4,0,0,0,0,0
2/4/2005 14:00,16,0,31.9,0,17.7,0,-46.3,0,0,0,0,0
2/4/2005 14:15,16.1,0,32,0,17.9,0,-46.2,0,0,0,0,0
2/4/2005 14:30,17.3,0,30.6,0,18.1,0,-46.2,0,0,0,0,0
2/4/2005 14:45,16.7,0,31.9,0,18.3,0,-46.1,0,0,0,0,0
2/4/2005 15:00,16.7,0,31.7,0,18.4,0,-46,0,0,0,0,0
2/4/2005 15:15,16.9,0,32.2,0,18.6,0,-45.9,0,0,0,0,0
2/4/2005 15:30,17,0,31.7,0,18.8,0,-45.9,0,0,0,0,0
2/4/2005 15:45,17,0,32.1,0,18.9,0,-45.8,0,0,0,0,0
2/4/2005 16:00,17,0,32.1,0,19,0,-45.7,0,0,0,0,0
2/4/2005 16:15,17.1,0,32.6,0,19.1,0,-45.7,0,0,0,0,0
2/4/2005 16:30,16.9,0,33,0,19,0,-45.6,0,0,0,0,0
2/4/2005 16:45,16.8,0,33.2,0,18.8,0,-45.5,0,0,0,0,0
2/4/2005 17:00,16.6,0,33.4,0,18.6,0,-45.5,0,0,0,0,0
2/4/2005 17:15,16.3,0,33,0,18.4,0,-45.4,0,0,0,0,0
2/4/2005 17:30,16.1,0,33,0,18.3,0,-45.4,0,0,0,0,0
2/4/2005 17:45,15.9,0,32.6,0,18.1,0,-45.3,0,0,0,0,0
2/4/2005 18:00,15.9,0,32.9,0,18,0,-45.3,0,0,0,0,0
2/4/2005 18:15,16.7,0,32.5,0,17.8,0,-45.2,0,0,0,0,0
2/4/2005 18:30,17.4,0,31.6,0,17.7,0,-45.2,0,0,0,0,0
2/4/2005 18:45,17.9,0,33.9,0,17.6,0,-45.2,0,0,0,0,0
2/4/2005 19:00,18.4,0,34.6,0,17.5,0,-45.2,0,0,0,0,0
2/4/2005 19:15,18.7,0,31.9,0,17.4,0,-45.1,0,0,0,0,0
2/4/2005 19:30,18.9,0,31,0,17.3,0,-45.1,0,0,0,0,0
2/4/2005 19:45,19.2,0,30.8,0,17.2,0,-46.3,0,0,0,0,0
2/4/2005 20:00,19.4,0,29.9,0,17.1,0,-45.8,0,0,0,0,0
2/4/2005 20:15,19.6,0,30.3,0,17,0,-45.7,0,0,0,0,0
2/4/2005 20:30,19.9,0,30.8,0,16.9,0,-45.6,0,0,0,0,0
2/4/2005 20:45,20.1,0,30.8,0,16.8,0,-45.6,0,0,0,0,0
2/4/2005 21:00,20.3,0,32.7,0,16.8,0,-45.6,0,0,0,0,0
2/4/2005 21:15,20.5,0,32.8,0,16.7,0,-45.6,0,0,0,0,0
2/4/2005 21:30,20.6,0,34.3,0,16.7,0,-45.5,0,0,0,0,0
2/4/2005 21:45,20.8,0,35,0,16.6,0,-45.5,0,0,0,0,0
2/4/2005 22:00,20.9,0,34.5,0,16.6,0,-45.5,0,0,0,0,0
2/4/2005 22:15,21.1,0,33.7,0,16.6,0,-45.5,0,0,0,0,0
2/4/2005 22:30,21.1,0,33.5,0,16.6,0,-45.4,0,0,0,0,0
2/4/2005 22:45,21.1,0,32.9,0,16.5,0,-46.5,0,0,0,0,0
2/4/2005 23:00,21.2,0,33.8,0,16.5,0,-46.3,0,0,0,0,0
2/4/2005 23:15,21.3,0,35.7,0,16.4,0,-46,0,0,0,0,0
2/4/2005 23:30,21.3,0,35.4,0,16.4,0,-45.9,0,0,0,0,0
2/4/2005 23:45,21.4,0,39.5,0,16.4,0,-45.9,0,0,0,0,0
2/5/2005 0:00,21.4,0,39.1,0,16.3,0,-45.8,0,0,0,0,0
2/5/2005 0:15,21.4,0,37.5,0,16.3,0,-45.8,0,0,0,0,0
2/5/2005 0:30,21.4,0,36.3,0,16.3,0,-45.7,0,0,0,0,0
2/5/2005 0:45,21.4,0,35.2,0,16.2,0,-45.7,0,0,0,0,0
2/5/2005 1:00,21.4,0,34.7,0,16.2,0,-45.7,0,0,0,0,0
2/5/2005 1:15,21.4,0,34.2,0,16.2,0,-45.6,0,0,0,0,0
2/5/2005 1:30,21.4,0,33.7,0,16.1,0,-45.6,0,0,0,0,0
2/5/2005 1:45,21.4,0,33.2,0,16.1,0,-45.6,0,0,0,0,0
2/5/2005 2:00,21.4,0,33,0,16,0,-45.6,0,0,0,0,0
2/5/2005 2:15,21.5,0,32.7,0,16,0,-45.5,0,0,0,0,0
2/5/2005 2:30,21.2,0,32.3,0,16,0,-45.5,0,0,0,0,0
2/5/2005 2:45,20.6,0,33.4,0,16,0,-45.5,0,0,0,0,0
2/5/2005 3:00,20,0,33.7,0,16,0,-45.5,0,0,0,0,0
2/5/2005 3:15,19.6,0,34,0,15.9,0,-45.5,0,0,0,0,0
2/5/2005 3:30,19.1,0,34.4,0,15.9,0,-45.5,0,0,0,0,0
2/5/2005 3:45,18.7,0,35,0,15.8,0,-45.5,0,0,0,0,0
2/5/2005 4:00,18.2,0,35,0,15.7,0,-45.5,0,0,0,0,0
2/5/2005 4:15,17.8,0,35.6,0,15.7,0,-45.5,0,0,0,0,0
2/5/2005 4:30,17.4,0,35.7,0,15.6,0,-45.5,0,0,0,0,0
2/5/2005 4:45,17.1,0,36.1,0,15.5,0,-45.5,0,0,0,0,0
2/5/2005 5:00,16.7,0,36.4,0,15.4,0,-45.5,0,0,0,0,0
2/5/2005 5:15,16.4,0,36.6,0,15.3,0,-45.5,0,0,0,0,0
2/5/2005 5:30,16.1,0,36.9,0,15.3,0,-45.5,0,0,0,0,0
2/5/2005 5:45,15.8,0,37.3,0,15.2,0,-45.6,0,0,0,0,0
2/5/2005 6:00,15.7,0,37,0,15.1,0,-45.6,0,0,0,0,0
2/5/2005 6:15,16.6,0,36.5,0,15.1,0,-45.6,0,0,0,0,0
2/5/2005 6:30,17.1,0,35.6,0,15,0,-45.6,0,0,0,0,0
2/5/2005 6:45,17.5,0,35.6,0,15,0,-45.6,0,0,0,0,0
2/5/2005 7:00,17.9,0,35.1,0,15,0,-45.6,0,0,0,0,0
2/5/2005 7:15,18.2,0,34.7,0,15.1,0,-45.7,0,0,0,0,0
2/5/2005 7:30,18.5,0,34.6,0,15.1,0,-45.7,0,0,0,0,0
2/5/2005 7:45,18.5,0,34.4,0,15.2,0,-45.7,0,0,0,0,0
2/5/2005 8:00,18.3,0,35.8,0,15.6,0,-46.6,0,0,0,0,0
2/5/2005 8:15,18.3,0,36.9,0,15.9,0,-46.3,0,0,0,0,0
2/5/2005 8:30,18.2,0,40.3,0,16,0,-46.2,0,0,0,0,0
2/5/2005 8:45,17.6,0,39.5,0,16.1,0,-46.1,0,0,0,0,0
2/5/2005 9:00,17,0,39,0,16.2,0,-46.1,0,0,0,0,0
2/5/2005 9:15,16.7,0,39.9,0,16.2,0,-46.1,0,0,0,0,0
2/5/2005 9:30,16.4,0,40.6,0,16.3,0,-46.1,0,0,0,0,0
2/5/2005 9:45,16.3,0,41.2,0,16.3,0,-46.2,0,0,0,0,0
2/5/2005 10:00,16.2,0,41.2,0,16.3,0,-46.1,0,0,0,0,0
2/5/2005 10:15,16.1,0,41.3,0,16.4,0,-46.1,0,0,0,0,0
2/5/2005 10:30,16.1,0,41.5,0,16.4,0,-46.1,0,0,0,0,0
2/5/2005 10:45,16.1,0,42,0,16.5,0,-46.1,0,0,0,0,0
2/5/2005 11:00,16.1,0,42.8,0,16.5,0,-46.1,0,0,0,0,0
2/5/2005 11:15,16.2,0,43.1,0,16.6,0,-46.1,0,0,0,0,0
2/5/2005 11:30,16.3,0,42.4,0,16.6,0,-46,0,0,0,0,0
2/5/2005 11:45,16.5,0,42.3,0,17,0,-46.8,0,0,0,0,0
2/5/2005 12:00,16.7,0,41.8,0,17.3,0,-46.5,0,0,0,0,0
2/5/2005 12:15,16.8,0,41.4,0,17.6,0,-46.3,0,0,0,0,0
2/5/2005 12:30,16.9,0,41.6,0,17.9,0,-46.2,0,0,0,0,0
2/5/2005 12:45,16.9,0,41.5,0,18,0,-46.2,0,0,0,0,0
2/5/2005 13:00,16.9,0,40,0,18.1,0,-46.8,0,0,0,0,0
2/5/2005 13:15,17,0,39.4,0,18.4,0,-46.7,0,0,0,0,0
2/5/2005 13:30,17.1,0,38.4,0,18.6,0,-46.3,0,0,0,0,0
2/5/2005 13:45,17.2,0,37.9,0,18.8,0,-46.2,0,0,0,0,0
2/5/2005 14:00,17.4,0,37.5,0,19,0,-46,0,0,0,0,0
2/5/2005 14:15,17.5,0,37.3,0,19.2,0,-45.9,0,0,0,0,0
2/5/2005 14:30,17.7,0,37,0,19.2,0,-45.9,0,0,0,0,0
2/5/2005 14:45,17.8,0,37.3,0,19.3,0,-45.8,0,0,0,0,0
2/5/2005 15:00,17.9,0,37.8,0,19.5,0,-45.7,0,0,0,0,0
2/5/2005 15:15,17.8,0,38,0,19.8,0,-45.7,0,0,0,0,0
2/5/2005 15:30,17.9,0,38.6,0,19.9,0,-45.6,0,0,0,0,0
2/5/2005 15:45,17.8,0,38.6,0,20,0,-45.6,0,0,0,0,0
2/5/2005 16:00,17.7,0,38.6,0,20.1,0,-45.5,0,0,0,0,0
2/5/2005 16:15,17.5,0,39.3,0,20.1,0,-45.4,0,0,0,0,0
2/5/2005 16:30,17.3,0,38.3,0,20,0,-45.4,0,0,0,0,0
2/5/2005 16:45,17,0,39.9,0,19.7,0,-45.3,0,0,0,0,0
2/5/2005 17:00,16.6,0,39.1,0,19.5,0,-45.3,0,0,0,0,0
2/5/2005 17:15,17.2,0,39.3,0,19.2,0,-46.1,0,0,0,0,0
2/5/2005 17:30,17.5,0,38.8,0,19.1,0,-46.2,0,0,0,0,0
2/5/2005 17:45,17.4,0,37.9,0,18.9,0,-45.8,0,0,0,0,0
2/5/2005 18:00,17.3,0,36.8,0,18.7,0,-45.6,0,0,0,0,0
2/5/2005 18:15,17.7,0,36.7,0,18.5,0,-45.5,0,0,0,0,0
2/5/2005 18:30,18.1,0,36.2,0,18.4,0,-45.5,0,0,0,0,0